Weather History for Buckhannon, WV

Change the Weather History Date:

Saturday, May 11, 2013

  Actual Average (KEKN) Record (KEKN)
Temperature  
Mean Temperature 58 °F 57 °F  
Max Temperature 62 °F 70 °F 88 °F (1911)
Min Temperature 51 °F 44 °F 22 °F (1966)
Degree Days  
Heating Degree Days 8 9  
Month to date heating degree days 109  
Since 1 July heating degree days 5672  
Cooling Degree Days 0 0  
Month to date cooling degree days 0  
Year to date cooling degree days 3  
Growing Degree Days 8 (Base 50)    
Moisture  
Dew Point 56 °F    
Average Humidity 91    
Maximum Humidity 100    
Minimum Humidity 77    
Precipitation  
Precipitation 0.62 in 0.16 in 1.83 in (1924)
Month to date precipitation 1.73  
Year to date precipitation 15.82  
Snow  
Snow 0.00 in - - ()
Month to date snowfall  
Since 1 September snowfall  
Snow Depth -    
Sea Level Pressure  
Sea Level Pressure 29.87 in    
Wind  
Wind Speed 9 mph (WSW)    
Max Wind Speed 16 mph    
Max Gust Speed 25 mph    
Visibility 8 miles    
Events Rain    
T = Trace of Precipitation, MM = Missing Value Source: NWS Daily Summary

Daily Weather History Graph

Daily Weather History Graph

Search for Another Location

Airport:

Trip Planner

Search our weather history database for the weather conditions in past years. The results will help you decide how hot, cold, wet, or windy it might be!

Date:

Astronomy

May. 11, 2013 Rise Set
Actual Time 6:11 AM EDT 8:23 PM EDT
Civil Twilight 5:42 AM EDT 8:53 PM EDT
Nautical Twilight 5:05 AM EDT 9:30 PM EDT
Astronomical Twilight 4:25 AM EDT 10:10 PM EDT
Moon 7:18 AM EDT (5/11) 10:02 PM EDT (5/11)
Length of Visible Light 15h 11m
Length of Day
14h 11m
Waxing Crescent, 3% of the Moon is Illuminated
May 11
Waxing Crescent
May 18
First Quarter
May 25
Full
May 31
Last Quarter
Jun 8
New

Hourly Weather History & Observations

Time (EDT) Temp. Dew Point Humidity Pressure Visibility Wind Dir Wind Speed Gust Speed Precip Events Conditions
12:15 AM 60.8 °F 60.8 °F 100% 29.90 in 6.0 mi SSW 3.5 mph - N/A   Overcast
12:35 AM 60.8 °F 60.8 °F 100% 29.91 in 4.0 mi SSW 5.8 mph - N/A   Overcast
12:55 AM 60.8 °F 60.8 °F 100% 29.91 in 2.0 mi SSW 6.9 mph - 0.02 in   Overcast
1:15 AM 60.8 °F 60.8 °F 100% 29.91 in 7.0 mi SSW 9.2 mph - N/A   Light Drizzle
1:35 AM 60.8 °F 60.8 °F 100% 29.90 in 5.0 mi SSW 9.2 mph - N/A   Overcast
1:55 AM 60.8 °F 60.8 °F 100% 29.89 in 4.0 mi SW 9.2 mph - 0.01 in Rain Light Rain
2:15 AM 59.0 °F 59.0 °F 100% 29.89 in 5.0 mi SW 8.1 mph 17.3 mph N/A Rain Rain
2:35 AM 59.0 °F 59.0 °F 100% 29.89 in 6.0 mi SW 11.5 mph 17.3 mph 0.02 in Rain Light Rain
2:55 AM 59.0 °F 59.0 °F 100% 29.88 in 4.0 mi SW 9.2 mph 19.6 mph 0.06 in Rain Rain
3:15 AM 59.0 °F 59.0 °F 100% 29.89 in 2.5 mi SSW 6.9 mph - 0.04 in Rain Rain
3:35 AM 59.0 °F 59.0 °F 100% 29.88 in 3.0 mi SSW 9.2 mph - 0.07 in Rain Heavy Rain
3:55 AM 59.0 °F 59.0 °F 100% 29.88 in 4.0 mi SW 9.2 mph - 0.12 in Rain Light Rain
4:15 AM 59.0 °F 59.0 °F 100% 29.88 in 5.0 mi SW 10.4 mph - 0.01 in Rain Light Rain
4:35 AM 59.0 °F 59.0 °F 100% 29.87 in 5.0 mi SSW 5.8 mph - 0.03 in Rain Light Rain
4:55 AM 57.2 °F 57.2 °F 100% 29.87 in 3.0 mi SSW 6.9 mph - 0.06 in Rain Heavy Rain
5:15 AM 57.2 °F 57.2 °F 100% 29.86 in 2.0 mi SSW 4.6 mph - 0.03 in Rain Rain
5:35 AM 57.2 °F 57.2 °F 100% 29.86 in 3.0 mi SSW 8.1 mph - 0.04 in Rain Light Rain
5:55 AM 57.2 °F 57.2 °F 100% 29.86 in 1.8 mi SSW 8.1 mph - 0.09 in   Light Drizzle
6:15 AM 57.2 °F 57.2 °F 100% 29.86 in 2.5 mi SSW 6.9 mph - 0.02 in Rain Rain
6:35 AM 57.2 °F 57.2 °F 100% 29.86 in 5.0 mi SSW 6.9 mph 17.3 mph 0.03 in   Overcast
6:55 AM 57.2 °F 57.2 °F 100% 29.86 in 2.5 mi SSW 11.5 mph 16.1 mph 0.03 in   Overcast
7:15 AM 57.2 °F 57.2 °F 100% 29.86 in 5.0 mi SSW 9.2 mph - N/A Rain Rain
7:35 AM 57.2 °F 57.2 °F 100% 29.86 in 4.0 mi SSW 10.4 mph 18.4 mph 0.01 in Rain Light Rain
7:55 AM 57.2 °F 57.2 °F 100% 29.86 in 4.0 mi SSW 11.5 mph - 0.02 in Rain Light Rain
8:15 AM 59.0 °F 59.0 °F 100% 29.86 in 7.0 mi SSW 8.1 mph - N/A Rain Light Rain
8:35 AM 57.2 °F 57.2 °F 100% 29.86 in 5.0 mi SSW 11.5 mph - N/A Rain Light Rain
8:55 AM 59.0 °F 59.0 °F 100% 29.86 in 5.0 mi SSW 10.4 mph - 0.01 in Rain Light Rain
9:15 AM 59.0 °F 59.0 °F 100% 29.86 in 10.0 mi SSW 10.4 mph - N/A   Overcast
9:35 AM 59.0 °F 59.0 °F 100% 29.86 in 8.0 mi SSW 11.5 mph 17.3 mph N/A   Overcast
9:55 AM 60.8 °F 60.8 °F 100% 29.85 in 10.0 mi SSW 12.7 mph 19.6 mph N/A   Overcast
10:15 AM 60.8 °F 60.8 °F 100% 29.86 in 10.0 mi SW 11.5 mph 18.4 mph N/A   Overcast
10:35 AM 60.8 °F 60.8 °F 100% 29.86 in 7.0 mi SW 13.8 mph 19.6 mph N/A   Overcast
10:55 AM 60.8 °F 60.8 °F 100% 29.86 in 5.0 mi SW 11.5 mph 19.6 mph N/A   Overcast
11:15 AM 60.8 °F 60.8 °F 100% 29.86 in 3.0 mi SW 12.7 mph 20.7 mph 0.02 in Rain Light Rain
11:35 AM 60.8 °F 60.8 °F 100% 29.85 in 1.5 mi SW 16.1 mph 25.3 mph 0.12 in Rain Heavy Rain
11:55 AM 59.0 °F 59.0 °F 100% 29.86 in 10.0 mi West 13.8 mph 19.6 mph 0.20 in   Mostly Cloudy
12:15 PM 60.8 °F 59.0 °F 94% 29.87 in 10.0 mi West 9.2 mph 19.6 mph N/A   Mostly Cloudy
12:35 PM 62.6 °F 59.0 °F 88% 29.87 in 10.0 mi West 11.5 mph 19.6 mph N/A   Mostly Cloudy
12:55 PM 62.6 °F 57.2 °F 82% 29.87 in 10.0 mi WSW 12.7 mph 19.6 mph N/A   Mostly Cloudy
1:15 PM 62.6 °F 57.2 °F 82% 29.87 in 10.0 mi West 12.7 mph 19.6 mph N/A   Overcast
1:35 PM 60.8 °F 57.2 °F 88% 29.87 in 10.0 mi West 9.2 mph - N/A   Overcast
1:55 PM 60.8 °F 55.4 °F 82% 29.88 in 10.0 mi West 8.1 mph - N/A   Overcast
2:15 PM 60.8 °F 55.4 °F 82% 29.88 in 10.0 mi WSW 11.5 mph 17.3 mph N/A   Overcast
2:35 PM 60.8 °F 55.4 °F 82% 29.87 in 10.0 mi WSW 11.5 mph - N/A   Overcast
2:55 PM 60.8 °F 55.4 °F 82% 29.88 in 10.0 mi WNW 8.1 mph - N/A   Overcast
3:15 PM 60.8 °F 55.4 °F 82% 29.87 in 10.0 mi WNW 8.1 mph - N/A   Overcast
3:35 PM 62.6 °F 55.4 °F 77% 29.86 in 10.0 mi West 11.5 mph - N/A   Overcast
3:55 PM 62.6 °F 55.4 °F 77% 29.86 in 10.0 mi West 9.2 mph - N/A   Mostly Cloudy
4:15 PM 60.8 °F 55.4 °F 82% 29.86 in 10.0 mi West 6.9 mph - N/A   Overcast
4:35 PM 60.8 °F 53.6 °F 77% 29.86 in 10.0 mi WSW 16.1 mph - N/A   Overcast
4:55 PM 60.8 °F 53.6 °F 77% 29.86 in 10.0 mi West 12.7 mph 17.3 mph N/A   Overcast
5:15 PM 60.8 °F 53.6 °F 77% 29.86 in 10.0 mi WSW 13.8 mph 20.7 mph N/A   Overcast
5:35 PM 60.8 °F 53.6 °F 77% 29.86 in 10.0 mi WSW 6.9 mph - N/A   Overcast
5:55 PM 59.0 °F 53.6 °F 82% 29.86 in 10.0 mi WNW 9.2 mph - N/A   Overcast
6:15 PM 59.0 °F 53.6 °F 82% 29.87 in 10.0 mi West 10.4 mph 17.3 mph N/A   Overcast
6:35 PM 57.2 °F 53.6 °F 88% 29.87 in 10.0 mi West 5.8 mph - N/A   Overcast
6:55 PM 57.2 °F 51.8 °F 82% 29.87 in 10.0 mi WSW 11.5 mph 16.1 mph N/A   Mostly Cloudy
7:15 PM 57.2 °F 51.8 °F 82% 29.87 in 10.0 mi WSW 6.9 mph - N/A   Overcast
7:35 PM 57.2 °F 51.8 °F 82% 29.87 in 10.0 mi NW 8.1 mph - N/A   Overcast
7:55 PM 57.2 °F 51.8 °F 82% 29.87 in 10.0 mi WNW 8.1 mph 16.1 mph N/A   Overcast
8:15 PM 55.4 °F 51.8 °F 88% 29.88 in 10.0 mi West 4.6 mph - N/A   Overcast
8:35 PM 55.4 °F 51.8 °F 88% 29.88 in 10.0 mi Calm Calm - N/A   Overcast
8:55 PM 55.4 °F 50.0 °F 82% 29.88 in 10.0 mi West 9.2 mph - N/A   Overcast
9:15 PM 55.4 °F 50.0 °F 82% 29.89 in 10.0 mi West 8.1 mph - N/A   Overcast
9:35 PM 55.4 °F 48.2 °F 77% 29.89 in 10.0 mi WNW 10.4 mph 19.6 mph N/A   Overcast
9:55 PM 53.6 °F 48.2 °F 82% 29.89 in 10.0 mi West 8.1 mph - N/A   Overcast
10:15 PM 53.6 °F 46.4 °F 77% 29.91 in 10.0 mi West 11.5 mph - N/A   Overcast
10:35 PM 53.6 °F 46.4 °F 77% 29.91 in 10.0 mi West 9.2 mph - N/A   Mostly Cloudy
10:55 PM 53.6 °F 46.4 °F 77% 29.91 in 10.0 mi West 9.2 mph - N/A   Mostly Cloudy
11:15 PM 53.6 °F 46.4 °F 77% 29.91 in 10.0 mi WSW 6.9 mph - N/A   Mostly Cloudy
11:35 PM 53.6 °F 46.4 °F 77% 29.91 in 10.0 mi West 8.1 mph - N/A   Overcast
11:55 PM 51.8 °F 46.4 °F 82% 29.91 in 10.0 mi West 8.1 mph - N/A   Mostly Cloudy